Time,TemperatureF,DewpointF,PressureIn,WindDirection,WindDirectionDegrees,WindSpeedMPH,WindSpeedGustMPH,Humidity,HourlyPrecipIn,Conditions,Clouds,dailyrainin,SoftwareType,DateUTC
2013-02-20 00:01:00,53.0,32.0,29.69,NW,309,5.0,14.0,44,0.00,,,0.00,,2013-02-20 07:01:00,
2013-02-20 00:11:00,53.0,32.0,29.69,NW,309,5.0,14.0,44,0.00,,,0.00,,2013-02-20 07:11:00,
2013-02-20 00:21:00,52.0,31.0,29.69,WNW,293,4.0,14.0,45,0.00,,,0.00,,2013-02-20 07:21:00,
2013-02-20 00:31:00,52.0,32.0,29.69,NW,309,2.0,6.0,46,0.00,,,0.00,,2013-02-20 07:31:00,
2013-02-20 00:41:00,52.0,32.0,29.69,NW,309,2.0,6.0,46,0.00,,,0.00,,2013-02-20 07:41:00,
2013-02-20 00:52:00,52.0,32.0,29.69,WNW,294,1.0,6.0,46,0.00,,,0.00,,2013-02-20 07:52:00,
2013-02-20 01:01:00,52.0,32.0,29.70,WNW,287,2.0,5.0,46,0.00,,,0.00,,2013-02-20 08:01:00,
2013-02-20 01:11:00,52.0,32.0,29.70,WNW,287,2.0,5.0,46,0.00,,,0.00,,2013-02-20 08:11:00,
2013-02-20 01:21:00,51.0,31.0,29.70,West,281,2.0,5.0,47,0.00,,,0.00,,2013-02-20 08:21:00,
2013-02-20 01:31:00,50.0,31.0,29.70,West,277,2.0,6.0,48,0.00,,,0.00,,2013-02-20 08:31:00,
2013-02-20 01:41:00,50.0,31.0,29.70,West,277,2.0,6.0,48,0.00,,,0.00,,2013-02-20 08:41:00,
2013-02-20 01:52:00,50.0,31.0,29.70,WSW,239,2.0,6.0,48,0.00,,,0.00,,2013-02-20 08:52:00,
2013-02-20 02:01:00,50.0,32.0,29.70,West,278,3.0,7.0,49,0.00,,,0.00,,2013-02-20 09:01:00,
2013-02-20 02:11:00,50.0,32.0,29.70,West,278,3.0,7.0,49,0.00,,,0.00,,2013-02-20 09:11:00,
2013-02-20 02:21:00,50.0,32.0,29.70,West,259,3.0,8.0,50,0.00,,,0.00,,2013-02-20 09:21:00,
2013-02-20 02:31:00,50.0,33.0,29.71,WSW,246,6.0,11.0,52,0.00,,,0.00,,2013-02-20 09:31:00,
2013-02-20 02:41:00,50.0,33.0,29.71,WSW,246,6.0,11.0,52,0.00,,,0.00,,2013-02-20 09:41:00,
2013-02-20 02:51:00,50.0,34.0,29.71,WSW,244,7.0,15.0,55,0.00,,,0.00,,2013-02-20 09:51:00,
2013-02-20 03:01:00,49.0,35.0,29.72,WSW,243,8.0,16.0,59,0.00,,,0.00,,2013-02-20 10:01:00,
2013-02-20 03:11:00,49.0,35.0,29.72,WSW,243,8.0,16.0,59,0.00,,,0.00,,2013-02-20 10:11:00,
2013-02-20 03:21:00,49.0,36.0,29.71,WSW,240,6.0,16.0,61,0.00,,,0.00,,2013-02-20 10:21:00,
2013-02-20 03:31:00,49.0,36.0,29.70,SW,221,4.0,12.0,61,0.00,,,0.00,,2013-02-20 10:31:00,
2013-02-20 03:41:00,49.0,36.0,29.70,SW,221,4.0,12.0,61,0.00,,,0.00,,2013-02-20 10:41:00,
2013-02-20 03:51:00,48.0,36.0,29.69,SW,229,4.0,10.0,63,0.00,,,0.00,,2013-02-20 10:51:00,
2013-02-20 04:01:00,48.0,36.0,29.68,SSW,205,2.0,9.0,64,0.00,,,0.00,,2013-02-20 11:01:00,
2013-02-20 04:11:00,48.0,37.0,29.67,SW,226,3.0,8.0,66,0.00,,,0.00,,2013-02-20 11:11:00,
2013-02-20 04:21:00,48.0,37.0,29.67,SW,226,3.0,8.0,66,0.00,,,0.00,,2013-02-20 11:21:00,
2013-02-20 04:31:00,48.0,37.0,29.68,SW,226,4.0,7.0,66,0.00,,,0.00,,2013-02-20 11:31:00,
2013-02-20 04:41:00,48.0,37.0,29.68,SW,226,4.0,7.0,66,0.00,,,0.00,,2013-02-20 11:41:00,
2013-02-20 04:52:00,47.0,37.0,29.67,West,267,5.0,11.0,68,0.00,,,0.00,,2013-02-20 11:52:00,
2013-02-20 05:01:00,47.0,37.0,29.68,West,277,2.0,6.0,69,0.00,,,0.00,,2013-02-20 12:01:00,
2013-02-20 05:11:00,47.0,37.0,29.68,West,277,2.0,6.0,69,0.00,,,0.00,,2013-02-20 12:11:00,
2013-02-20 05:21:00,47.0,38.0,29.67,West,279,1.0,4.0,71,0.00,,,0.00,,2013-02-20 12:21:00,
2013-02-20 05:31:00,47.0,38.0,29.67,WSW,251,1.0,3.0,71,0.00,,,0.00,,2013-02-20 12:31:00,
2013-02-20 05:41:00,47.0,38.0,29.67,WSW,251,1.0,3.0,71,0.00,,,0.00,,2013-02-20 12:41:00,
2013-02-20 05:52:00,46.0,38.0,29.67,WSW,248,5.0,12.0,74,0.00,,,0.00,,2013-02-20 12:52:00,
2013-02-20 06:01:00,45.0,37.0,29.67,West,265,4.0,12.0,72,0.00,,,0.00,,2013-02-20 13:01:00,
2013-02-20 06:11:00,45.0,37.0,29.67,West,265,4.0,12.0,72,0.00,,,0.00,,2013-02-20 13:11:00,
2013-02-20 06:22:00,45.0,35.0,29.68,SW,224,5.0,11.0,67,0.00,,,0.00,,2013-02-20 13:22:00,
2013-02-20 06:31:00,46.0,35.0,29.68,SW,215,2.0,11.0,66,0.00,,,0.00,,2013-02-20 13:31:00,
2013-02-20 06:42:00,46.0,35.0,29.68,SW,215,2.0,11.0,66,0.00,,,0.00,,2013-02-20 13:42:00,
2013-02-20 06:51:00,46.0,35.0,29.68,SW,222,5.0,12.0,65,0.00,,,0.00,,2013-02-20 13:51:00,
2013-02-20 07:01:00,45.0,34.0,29.67,SW,223,6.0,14.0,66,0.00,,,0.00,,2013-02-20 14:01:00,
2013-02-20 07:11:00,45.0,34.0,29.67,SW,223,6.0,14.0,66,0.00,,,0.00,,2013-02-20 14:11:00,
2013-02-20 07:21:00,45.0,34.0,29.67,WNW,289,4.0,13.0,66,0.00,,,0.00,,2013-02-20 14:21:00,
2013-02-20 07:32:00,45.0,34.0,29.67,West,274,4.0,13.0,66,0.00,,,0.00,,2013-02-20 14:32:00,
2013-02-20 07:42:00,45.0,34.0,29.67,West,274,4.0,13.0,66,0.00,,,0.00,,2013-02-20 14:42:00,
2013-02-20 07:52:00,45.0,34.0,29.67,WSW,238,5.0,8.0,66,0.00,,,0.00,,2013-02-20 14:52:00,
2013-02-20 08:01:00,45.0,35.0,29.68,West,267,4.0,8.0,67,0.00,,,0.00,,2013-02-20 15:01:00,
2013-02-20 08:11:00,45.0,35.0,29.68,West,260,2.0,8.0,67,0.00,,,0.00,,2013-02-20 15:11:00,
2013-02-20 08:22:00,45.0,35.0,29.68,West,260,2.0,8.0,67,0.00,,,0.00,,2013-02-20 15:22:00,
2013-02-20 08:31:00,45.0,35.0,29.69,WSW,246,5.0,11.0,67,0.00,,,0.00,,2013-02-20 15:31:00,
2013-02-20 08:41:00,45.0,35.0,29.69,South,190,4.0,11.0,67,0.00,,,0.00,,2013-02-20 15:41:00,
2013-02-20 08:52:00,45.0,35.0,29.69,South,190,4.0,11.0,67,0.00,,,0.00,,2013-02-20 15:52:00,
2013-02-20 09:01:00,46.0,36.0,29.69,WSW,249,5.0,11.0,67,0.00,,,0.00,,2013-02-20 16:01:00,
2013-02-20 09:11:00,46.0,36.0,29.68,SW,232,6.0,13.0,67,0.00,,,0.00,,2013-02-20 16:11:00,
2013-02-20 09:21:00,46.0,36.0,29.68,SW,232,6.0,13.0,67,0.00,,,0.00,,2013-02-20 16:21:00,
2013-02-20 09:32:00,46.0,35.0,29.68,SSW,201,2.0,13.0,66,0.00,,,0.00,,2013-02-20 16:32:00,
2013-02-20 09:41:00,46.0,35.0,29.68,SSW,201,2.0,13.0,66,0.00,,,0.00,,2013-02-20 16:41:00,
2013-02-20 09:52:00,46.0,35.0,29.68,WSW,247,2.0,7.0,66,0.00,,,0.00,,2013-02-20 16:52:00,
2013-02-20 10:01:00,47.0,35.0,29.68,West,273,7.0,15.0,63,0.00,,,0.00,,2013-02-20 17:01:00,
2013-02-20 10:11:00,47.0,35.0,29.68,WSW,253,7.0,15.0,62,0.00,,,0.00,,2013-02-20 17:11:00,
2013-02-20 10:21:00,47.0,35.0,29.68,WSW,253,7.0,15.0,62,0.00,,,0.00,,2013-02-20 17:21:00,
2013-02-20 10:32:00,47.0,34.0,29.67,SW,227,6.0,12.0,60,0.00,,,0.00,,2013-02-20 17:32:00,
2013-02-20 10:41:00,47.0,34.0,29.67,SW,227,6.0,12.0,60,0.00,,,0.00,,2013-02-20 17:41:00,
2013-02-20 10:52:00,47.0,34.0,29.67,SW,214,5.0,12.0,61,0.00,,,0.00,,2013-02-20 17:52:00,
2013-02-20 11:02:00,47.0,36.0,29.68,WSW,249,9.0,16.0,66,0.00,,,0.00,,2013-02-20 18:02:00,
2013-02-20 11:11:00,47.0,36.0,29.68,WSW,249,9.0,16.0,66,0.00,,,0.00,,2013-02-20 18:11:00,
2013-02-20 11:21:00,48.0,37.0,29.67,WSW,255,4.0,10.0,65,0.00,,,0.00,,2013-02-20 18:21:00,
2013-02-20 11:31:00,48.0,36.0,29.66,SSW,195,7.0,16.0,62,0.00,,,0.00,,2013-02-20 18:31:00,
2013-02-20 11:41:00,48.0,36.0,29.66,SSW,195,7.0,16.0,62,0.00,,,0.00,,2013-02-20 18:41:00,
2013-02-20 11:52:00,47.0,37.0,29.67,South,176,10.0,20.0,69,0.00,,,0.00,,2013-02-20 18:52:00,
2013-02-20 12:01:00,45.0,38.0,29.67,WSW,248,10.0,20.0,76,0.00,,,0.01,,2013-02-20 19:01:00,
2013-02-20 12:11:00,45.0,38.0,29.67,WSW,248,10.0,20.0,76,0.00,,,0.01,,2013-02-20 19:11:00,
2013-02-20 12:21:00,38.0,33.0,29.68,West,266,10.0,22.0,82,0.25,,,0.06,,2013-02-20 19:21:00,
2013-02-20 12:31:00,36.0,33.0,29.68,West,276,11.0,21.0,88,0.12,,,0.09,,2013-02-20 19:31:00,
2013-02-20 12:41:00,36.0,33.0,29.68,West,276,11.0,21.0,88,0.12,,,0.09,,2013-02-20 19:41:00,
2013-02-20 12:52:00,36.0,33.0,29.70,West,267,11.0,21.0,90,0.14,,,0.12,,2013-02-20 19:52:00,
2013-02-20 13:01:00,37.0,35.0,29.70,West,278,10.0,21.0,91,0.05,,,0.13,,2013-02-20 20:01:00,
2013-02-20 13:11:00,37.0,34.0,29.72,WNW,282,11.0,20.0,89,0.05,,,0.14,,2013-02-20 20:11:00,
2013-02-20 13:21:00,37.0,34.0,29.72,WNW,282,11.0,20.0,89,0.05,,,0.14,,2013-02-20 20:21:00,
2013-02-20 13:31:00,36.0,33.0,29.73,West,265,14.0,24.0,89,0.04,,,0.14,,2013-02-20 20:31:00,
2013-02-20 13:41:00,36.0,33.0,29.76,West,267,9.0,19.0,88,0.00,,,0.14,,2013-02-20 20:41:00,
2013-02-20 13:51:00,36.0,33.0,29.76,West,267,9.0,19.0,88,0.00,,,0.14,,2013-02-20 20:51:00,
2013-02-20 14:01:00,36.0,33.0,29.75,SW,235,5.0,14.0,87,0.00,,,0.14,,2013-02-20 21:01:00,
2013-02-20 14:11:00,37.0,33.0,29.74,WNW,297,3.0,9.0,84,0.00,,,0.14,,2013-02-20 21:11:00,
2013-02-20 14:21:00,37.0,33.0,29.74,WNW,297,3.0,9.0,84,0.00,,,0.14,,2013-02-20 21:21:00,
2013-02-20 14:31:00,37.0,33.0,29.75,WSW,237,2.0,9.0,84,0.00,,,0.14,,2013-02-20 21:31:00,
2013-02-20 14:41:00,37.0,33.0,29.75,WSW,237,2.0,9.0,84,0.00,,,0.14,,2013-02-20 21:41:00,
2013-02-20 14:52:00,37.0,34.0,29.74,South,175,1.0,2.0,87,0.00,,,0.14,,2013-02-20 21:52:00,
2013-02-20 15:01:00,37.0,34.0,29.73,SE,143,3.0,6.0,88,0.00,,,0.14,,2013-02-20 22:01:00,
2013-02-20 15:11:00,39.0,35.0,29.75,SSE,149,4.0,10.0,84,0.00,,,0.14,,2013-02-20 22:11:00,
2013-02-20 15:21:00,39.0,35.0,29.75,SSE,149,4.0,10.0,84,0.00,,,0.14,,2013-02-20 22:21:00,
2013-02-20 15:31:00,40.0,34.0,29.74,SE,144,4.0,10.0,79,0.00,,,0.14,,2013-02-20 22:31:00,
2013-02-20 15:41:00,40.0,34.0,29.74,SE,144,4.0,10.0,79,0.00,,,0.14,,2013-02-20 22:41:00,
2013-02-20 15:51:00,39.0,32.0,29.75,SSE,155,2.0,8.0,77,0.00,,,0.14,,2013-02-20 22:51:00,
2013-02-20 16:01:00,39.0,31.0,29.75,SE,127,2.0,8.0,73,0.00,,,0.14,,2013-02-20 23:01:00,
2013-02-20 16:11:00,39.0,31.0,29.75,SE,126,0.0,2.0,73,0.00,,,0.14,,2013-02-20 23:11:00,
2013-02-20 16:21:00,39.0,31.0,29.75,SE,126,0.0,2.0,73,0.00,,,0.14,,2013-02-20 23:21:00,
2013-02-20 16:31:00,40.0,32.0,29.75,SE,126,0.0,0.0,72,0.00,,,0.14,,2013-02-20 23:31:00,
2013-02-20 16:42:00,40.0,32.0,29.75,SE,126,0.0,0.0,72,0.00,,,0.14,,2013-02-20 23:42:00,
2013-02-20 16:51:00,39.0,31.0,29.75,SE,134,0.0,4.0,73,0.00,,,0.14,,2013-02-20 23:51:00,
2013-02-20 17:02:00,40.0,32.0,29.75,SE,134,0.0,3.0,73,0.00,,,0.14,,2013-02-21 00:02:00,
2013-02-20 17:11:00,40.0,32.0,29.75,SE,134,0.0,3.0,73,0.00,,,0.14,,2013-02-21 00:11:00,
2013-02-20 17:21:00,39.0,30.0,29.76,SE,134,0.0,1.0,71,0.00,,,0.14,,2013-02-21 00:21:00,
2013-02-20 17:31:00,38.0,32.0,29.78,West,277,2.0,6.0,79,0.00,,,0.16,,2013-02-21 00:31:00,
2013-02-20 17:41:00,38.0,32.0,29.78,West,277,2.0,6.0,79,0.00,,,0.16,,2013-02-21 00:41:00,
2013-02-20 17:52:00,35.0,32.0,29.80,WSW,251,1.0,5.0,87,0.04,,,0.16,,2013-02-21 00:52:00,
2013-02-20 18:01:00,33.0,30.0,29.81,West,263,0.0,1.0,90,0.00,,,0.16,,2013-02-21 01:01:00,
2013-02-20 18:11:00,33.0,30.0,29.81,West,263,0.0,1.0,90,0.00,,,0.16,,2013-02-21 01:11:00,
2013-02-20 18:21:00,33.0,31.0,29.82,West,272,0.0,1.0,91,0.00,,,0.16,,2013-02-21 01:21:00,
2013-02-20 18:31:00,33.0,31.0,29.81,West,272,0.0,0.0,92,0.00,,,0.16,,2013-02-21 01:31:00,
2013-02-20 18:41:00,33.0,31.0,29.81,West,272,0.0,0.0,92,0.00,,,0.16,,2013-02-21 01:41:00,
2013-02-20 18:52:00,33.0,31.0,29.82,West,272,0.0,0.0,92,0.00,,,0.16,,2013-02-21 01:52:00,
2013-02-20 19:01:00,33.0,31.0,29.84,West,272,0.0,0.0,93,0.00,,,0.16,,2013-02-21 02:01:00,
2013-02-20 19:11:00,33.0,31.0,29.84,West,272,0.0,0.0,93,0.00,,,0.16,,2013-02-21 02:11:00,
2013-02-20 19:21:00,33.0,31.0,29.85,West,278,0.0,2.0,93,0.00,,,0.16,,2013-02-21 02:21:00,
2013-02-20 19:32:00,33.0,31.0,29.85,West,278,0.0,0.0,93,0.00,,,0.16,,2013-02-21 02:32:00,
2013-02-20 19:42:00,33.0,31.0,29.85,West,278,0.0,0.0,93,0.00,,,0.16,,2013-02-21 02:42:00,
2013-02-20 19:51:00,33.0,31.0,29.85,West,278,0.0,0.0,93,0.00,,,0.16,,2013-02-21 02:51:00,
2013-02-20 20:01:00,33.0,31.0,29.88,West,278,0.0,0.0,94,0.00,,,0.16,,2013-02-21 03:01:00,
2013-02-20 20:11:00,33.0,31.0,29.88,West,278,0.0,0.0,94,0.00,,,0.16,,2013-02-21 03:11:00,
2013-02-20 20:21:00,33.0,31.0,29.89,West,278,0.0,0.0,94,0.00,,,0.16,,2013-02-21 03:21:00,
2013-02-20 20:31:00,33.0,31.0,29.90,West,278,0.0,0.0,94,0.00,,,0.16,,2013-02-21 03:31:00,
2013-02-20 20:41:00,33.0,31.0,29.90,West,278,0.0,0.0,94,0.00,,,0.16,,2013-02-21 03:41:00,
2013-02-20 20:51:00,33.0,31.0,29.91,NNW,333,0.0,1.0,94,0.00,,,0.16,,2013-02-21 03:51:00,
2013-02-20 21:01:00,33.0,31.0,29.92,NNW,333,0.0,0.0,94,0.00,,,0.16,,2013-02-21 04:01:00,
2013-02-20 21:11:00,33.0,31.0,29.92,NNW,333,0.0,0.0,94,0.00,,,0.16,,2013-02-21 04:11:00,
2013-02-20 21:21:00,33.0,31.0,29.93,NNW,333,0.0,0.0,94,0.00,,,0.16,,2013-02-21 04:21:00,
2013-02-20 21:31:00,33.0,31.0,29.94,NNW,333,0.0,0.0,94,0.00,,,0.16,,2013-02-21 04:31:00,
2013-02-20 21:41:00,33.0,31.0,29.94,NNW,333,0.0,0.0,94,0.00,,,0.16,,2013-02-21 04:41:00,
2013-02-20 21:52:00,33.0,32.0,29.94,NNW,333,0.0,0.0,95,0.00,,,0.16,,2013-02-21 04:52:00,
2013-02-20 22:02:00,33.0,32.0,29.95,NNW,333,0.0,0.0,95,0.00,,,0.16,,2013-02-21 05:02:00,
2013-02-20 22:11:00,33.0,32.0,29.95,NNW,333,0.0,0.0,95,0.00,,,0.16,,2013-02-21 05:11:00,
2013-02-20 22:21:00,33.0,32.0,29.95,NNW,333,0.0,0.0,95,0.00,,,0.16,,2013-02-21 05:21:00,
2013-02-20 22:32:00,33.0,32.0,29.95,NNW,333,0.0,0.0,95,0.00,,,0.16,,2013-02-21 05:32:00,
2013-02-20 22:42:00,33.0,32.0,29.95,NNW,333,0.0,0.0,95,0.00,,,0.16,,2013-02-21 05:42:00,
2013-02-20 22:55:00,33.0,32.0,29.96,NNW,333,0.0,0.0,95,0.00,,,0.16,,2013-02-21 05:55:00,
2013-02-20 23:01:00,33.0,32.0,29.97,NNW,333,0.0,0.0,95,0.00,,,0.16,,2013-02-21 06:01:00,
2013-02-20 23:10:00,33.0,32.0,29.97,NNW,333,0.0,1.0,95,0.00,,,0.16,,2013-02-21 06:10:00,
2013-02-20 23:21:00,33.0,32.0,29.97,NNW,333,0.0,1.0,95,0.00,,,0.16,,2013-02-21 06:21:00,
2013-02-20 23:31:00,33.0,32.0,29.97,NNW,348,1.0,0.0,95,0.00,,,0.16,,2013-02-21 06:31:00,
2013-02-20 23:41:00,33.0,32.0,29.97,North,11,0.0,2.0,95,0.00,,,0.16,,2013-02-21 06:41:00,
2013-02-20 23:51:00,33.0,32.0,29.97,North,11,0.0,2.0,95,0.00,,,0.16,,2013-02-21 06:51:00,